|
Cosmos 1833 Rocket - Orbit
|
McMath-Hulbert Observatory;
21:18:33
| Home | Info | Passes |
|
View from above orbital plane
|
View from above satellite
|
Ground track
|
The orbit data is extracted from the following two-line orbital elements,
1 17590U 87027B 13138.86399497 .00000309 00000-0 17874-3 0 4073
2 17590 071.0052 047.8935 0003683 034.2564 325.8796 14.16581152353060
| Epoch (UTC): | 18 May 2013 20:44:09 |
| Eccentricity: | 0.0003683 |
| inclination: | 71.0052° |
| perigee height: | 834 km |
| apogee height: | 839 km |
| right ascension of ascending node: | 47.8935° |
| argument of perigee: | 34.2564° |
| revolutions per day: | 14.16581152 |
| mean anomaly at epoch: | 325.8796° |
| orbit number at epoch: | 35306 |
The dashed part of the orbit path shows where the satellite is in the earth's shadow,
|
|